Location: Monroe
(41.3286°N, 74.1872°W)
Time: 19:13:21
(UTC+00:00)

ARIANE 6 FM1 Upper Stage - Pass Details

Date: 17 January 2026
Orbit: 522 x 609 km, 62.0° (Epoch: 6 February)

Event Time Altitude Azimuth Distance (km) Brightness Sun altitude
Exits shadow 10:03:46 25° 171° (S) 1,104 4.2 -25.1°
Drops below altitude 10° 10:05:35 10° 161° (SSE) 1,788 5.5 -24.8°
Sets 10:07:50 0° 156° (SSE) 2,688 6.5 -24.3°
